Regional Weather Roundup
Issued by NWS

Home | Current Version | Previous Version | Text Only | Print | Product List | Glossary Off
Versions: 1 2 3 4 5 6 7 8 9 10 11 12 13 14 15 16 17 18 19 20 21 22 23 24 25 26 27 28 29 30 31 32 33 34 35 36 37 38 39 40 41 42 43 44 45 46 47 48 49 50

000
ASUS43 KLMK 241810
RWRKY
KENTUCKY REGIONAL WEATHER ROUNDUP
NATIONAL WEATHER SERVICE LOUISVILLE KY
100 PM EST WED DEC 24 2014

NOTE "FAIR" INDICATES FEW OR NO CLOUDS BELOW 12,000 FEET
WITH NO SIGNIFICANT WEATHER AND/OR OBSTRUCTIONS TO VISIBILITY.

KYZ001>023-026-027-061>063-070>075-241900-
WESTERN AND SOUTH CENTRAL KENTUCKY

CITY           SKY/WX    TMP DP  RH WIND       PRES   REMARKS
PADUCAH        LGT RAIN  43  39  86 W8        29.69F
HENDERSON      CLOUDY    43  37  81 W16       29.64R
OWENSBORO      CLOUDY    44  42  93 NW13      29.62R
HOPKINSVILLE   CLOUDY    43  41  93 W15       29.66R
BOWLING GREEN  LGT RAIN  46  42  86 W13G21    29.61R
GLASGOW        RAIN      44  44 100 W12G18    29.56R
$$

KYZ024-025-028>034-038-045-046-053-241900-
NORTH CENTRAL KENTUCKY

CITY           SKY/WX    TMP DP  RH WIND       PRES   REMARKS
LOUISVILLE/SDF RAIN      47  45  93 W21       29.47R FOG
LOUISVILLE/LOU LGT RAIN  47  45  93 W20G26    29.47R FOG
FORT KNOX      HVY RAIN  44  43  95 W20G25    29.48R FOG
$$

KYZ035>037-039>044-047>052-055>060-089>105-241900-
NORTHEAST KENTUCKY

CITY           SKY/WX    TMP DP  RH WIND       PRES   REMARKS
LEXINGTON      CLOUDY    59  55  87 S14       29.42F
COVINGTON      CLOUDY    56  52  86 S9        29.40F FOG
FRANKFORT      CLOUDY    58  55  90 S7        29.41F
$$

KYZ054-064>069-076>088-106>120-241900-
SOUTHEAST KENTUCKY

CITY           SKY/WX    TMP DP  RH WIND       PRES   REMARKS
JACKSON        CLOUDY    64  54  69 VRB6      29.49F
LONDON         CLOUDY    63  52  67 S12G21    29.50F
SOMERSET       CLOUDY    59  55  88 S10G16    29.49F
MIDDLESBORO    CLOUDY    59  55  87 S7        29.56F
MONTICELLO     CLOUDY    63  56  78 S16       29.51F
$$



USA.gov is the U.S. government's official web portal to all federal, state and local government web resources and services.